LOCATION_NAME,SAMPLE COLLECTION TIME,DOSE EQUIVALENT RATE (nSv/h),GAMMA COUNT RATE R02 (CPM),GAMMA COUNT RATE R03 (CPM),GAMMA COUNT RATE R04 (CPM),GAMMA COUNT RATE R05 (CPM),GAMMA COUNT RATE R06 (CPM),GAMMA COUNT RATE R07 (CPM),GAMMA COUNT RATE R08 (CPM),GAMMA COUNT RATE R09 (CPM),STATUS
WI: MILWAUKEE,01/01/2018 00:21:00,,1689.00,922.00,242.00,133.00,77.00,99.00,65.00,51.00,APPROVED
WI: MILWAUKEE,01/01/2018 01:21:00,,1665.00,899.00,237.00,132.00,77.00,94.00,65.00,44.00,APPROVED
WI: MILWAUKEE,01/01/2018 02:21:00,,1676.00,886.00,234.00,129.00,77.00,95.00,65.00,43.00,APPROVED
WI: MILWAUKEE,01/01/2018 03:22:00,,1677.00,884.00,234.00,127.00,75.00,93.00,63.00,39.00,APPROVED
WI: MILWAUKEE,01/01/2018 04:22:00,,1672.00,877.00,230.00,125.00,75.00,89.00,64.00,38.00,APPROVED
WI: MILWAUKEE,01/01/2018 05:22:00,,1679.00,871.00,232.00,124.00,75.00,92.00,61.00,37.00,APPROVED
WI: MILWAUKEE,01/01/2018 06:22:00,,1685.00,868.00,228.00,121.00,75.00,89.00,64.00,38.00,APPROVED
WI: MILWAUKEE,01/01/2018 07:23:00,,1678.00,871.00,229.00,123.00,75.00,92.00,63.00,37.00,APPROVED
WI: MILWAUKEE,01/01/2018 08:23:00,,1704.00,864.00,231.00,122.00,75.00,92.00,62.00,36.00,APPROVED
WI: MILWAUKEE,01/01/2018 09:23:00,,1705.00,867.00,229.00,122.00,75.00,91.00,60.00,37.00,APPROVED
WI: MILWAUKEE,01/01/2018 10:23:00,,1716.00,878.00,234.00,126.00,75.00,95.00,62.00,38.00,APPROVED
WI: MILWAUKEE,01/01/2018 11:23:00,,1709.00,884.00,234.00,124.00,74.00,94.00,62.00,37.00,APPROVED
WI: MILWAUKEE,01/01/2018 12:24:00,,1721.00,887.00,232.00,126.00,74.00,91.00,63.00,37.00,APPROVED
WI: MILWAUKEE,01/01/2018 13:24:00,,1729.00,894.00,235.00,128.00,75.00,94.00,64.00,37.00,APPROVED
WI: MILWAUKEE,01/01/2018 14:24:00,,1733.00,899.00,238.00,131.00,78.00,94.00,63.00,36.00,APPROVED
WI: MILWAUKEE,01/01/2018 15:24:00,,1753.00,923.00,242.00,135.00,79.00,97.00,66.00,38.00,APPROVED
WI: MILWAUKEE,01/01/2018 16:24:00,,1757.00,936.00,251.00,140.00,81.00,98.00,67.00,40.00,APPROVED
WI: MILWAUKEE,01/01/2018 17:25:00,,1754.00,954.00,250.00,143.00,82.00,100.00,67.00,42.00,APPROVED
WI: MILWAUKEE,01/01/2018 18:25:00,,1759.00,974.00,254.00,148.00,83.00,105.00,69.00,47.00,APPROVED
WI: MILWAUKEE,01/01/2018 19:25:00,,1756.00,975.00,257.00,153.00,83.00,104.00,70.00,48.00,APPROVED
WI: MILWAUKEE,01/01/2018 20:25:00,,1757.00,990.00,257.00,151.00,83.00,105.00,70.00,50.00,APPROVED
WI: MILWAUKEE,01/01/2018 21:25:00,,1743.00,975.00,257.00,151.00,86.00,105.00,70.00,47.00,APPROVED
WI: MILWAUKEE,01/01/2018 22:26:00,,1770.00,983.00,258.00,147.00,85.00,106.00,69.00,45.00,APPROVED
WI: MILWAUKEE,01/01/2018 23:26:00,,1763.00,982.00,255.00,152.00,82.00,104.00,70.00,44.00,APPROVED
WI: MILWAUKEE,01/02/2018 00:26:00,,1779.00,997.00,259.00,153.00,86.00,106.00,69.00,42.00,APPROVED
WI: MILWAUKEE,01/02/2018 01:26:00,,1789.00,1009.00,262.00,155.00,87.00,106.00,70.00,43.00,APPROVED
WI: MILWAUKEE,01/02/2018 02:26:00,,1806.00,1012.00,263.00,157.00,86.00,108.00,72.00,42.00,APPROVED
WI: MILWAUKEE,01/02/2018 03:27:00,,1802.00,1017.00,264.00,159.00,85.00,110.00,71.00,44.00,APPROVED
WI: MILWAUKEE,01/02/2018 04:27:00,,1794.00,1014.00,262.00,158.00,87.00,108.00,72.00,44.00,APPROVED
WI: MILWAUKEE,01/02/2018 05:27:00,,1789.00,1015.00,268.00,159.00,87.00,108.00,72.00,44.00,APPROVED
WI: MILWAUKEE,01/02/2018 06:27:00,,1799.00,1020.00,262.00,160.00,87.00,112.00,71.00,43.00,APPROVED
WI: MILWAUKEE,01/02/2018 07:27:00,,1800.00,1024.00,270.00,162.00,86.00,109.00,71.00,41.00,APPROVED
WI: MILWAUKEE,01/02/2018 08:28:00,,1830.00,1045.00,275.00,164.00,86.00,112.00,72.00,44.00,APPROVED
WI: MILWAUKEE,01/02/2018 09:28:00,,1862.00,1075.00,283.00,174.00,94.00,116.00,76.00,42.00,APPROVED
WI: MILWAUKEE,01/02/2018 10:28:00,,1854.00,1078.00,284.00,175.00,93.00,117.00,75.00,42.00,APPROVED
WI: MILWAUKEE,01/02/2018 11:28:00,,1863.00,1085.00,285.00,181.00,94.00,120.00,76.00,42.00,APPROVED
WI: MILWAUKEE,01/02/2018 12:28:00,,1841.00,1088.00,284.00,176.00,92.00,120.00,77.00,43.00,APPROVED
WI: MILWAUKEE,01/02/2018 13:29:00,,1871.00,1117.00,288.00,185.00,99.00,125.00,80.00,44.00,APPROVED
WI: MILWAUKEE,01/02/2018 14:29:00,,1887.00,1139.00,297.00,192.00,98.00,127.00,79.00,45.00,APPROVED
WI: MILWAUKEE,01/02/2018 15:29:00,,1851.00,1127.00,291.00,193.00,95.00,125.00,80.00,46.00,APPROVED
WI: MILWAUKEE,01/02/2018 16:11:00,,1817.00,1085.00,280.00,179.00,93.00,120.00,77.00,54.00,APPROVED
WI: MILWAUKEE,01/02/2018 17:17:00,,1679.00,909.00,240.00,129.00,77.00,95.00,65.00,53.00,APPROVED
WI: MILWAUKEE,01/02/2018 18:17:00,,1675.00,941.00,250.00,139.00,81.00,103.00,69.00,52.00,APPROVED
WI: MILWAUKEE,01/02/2018 19:18:00,,1673.00,952.00,250.00,146.00,82.00,103.00,71.00,50.00,APPROVED
WI: MILWAUKEE,01/02/2018 20:18:00,,1695.00,982.00,263.00,154.00,86.00,106.00,71.00,49.00,APPROVED
WI: MILWAUKEE,01/02/2018 21:18:00,,1736.00,1012.00,270.00,165.00,90.00,110.00,73.00,53.00,APPROVED
WI: MILWAUKEE,01/02/2018 22:18:00,,1775.00,1051.00,275.00,169.00,92.00,116.00,75.00,55.00,APPROVED
WI: MILWAUKEE,01/02/2018 23:18:00,,1830.00,1090.00,281.00,177.00,94.00,120.00,78.00,57.00,APPROVED
WI: MILWAUKEE,01/03/2018 00:19:00,,1845.00,1105.00,284.00,180.00,94.00,120.00,75.00,57.00,APPROVED
WI: MILWAUKEE,01/03/2018 01:19:00,,1891.00,1132.00,290.00,182.00,98.00,124.00,80.00,54.00,APPROVED
WI: MILWAUKEE,01/03/2018 02:19:00,,1972.00,1188.00,303.00,195.00,100.00,128.00,84.00,50.00,APPROVED
WI: MILWAUKEE,01/03/2018 03:19:00,,1943.00,1166.00,303.00,197.00,102.00,127.00,81.00,47.00,APPROVED
WI: MILWAUKEE,01/03/2018 04:19:00,,1914.00,1160.00,300.00,196.00,101.00,128.00,82.00,51.00,APPROVED
WI: MILWAUKEE,01/03/2018 05:20:00,,1907.00,1162.00,301.00,191.00,103.00,127.00,82.00,54.00,APPROVED
WI: MILWAUKEE,01/03/2018 06:20:00,,1946.00,1185.00,304.00,199.00,102.00,131.00,83.00,56.00,APPROVED
WI: MILWAUKEE,01/03/2018 07:20:00,,1945.00,1203.00,311.00,206.00,105.00,133.00,84.00,61.00,APPROVED
WI: MILWAUKEE,01/03/2018 08:20:00,,1958.00,1220.00,316.00,207.00,105.00,134.00,83.00,64.00,APPROVED
WI: MILWAUKEE,01/03/2018 09:20:00,,1959.00,1226.00,319.00,210.00,106.00,137.00,84.00,62.00,APPROVED
WI: MILWAUKEE,01/03/2018 10:21:00,,1965.00,1233.00,321.00,215.00,108.00,141.00,86.00,65.00,APPROVED
WI: MILWAUKEE,01/03/2018 11:21:00,,1976.00,1258.00,323.00,222.00,110.00,139.00,89.00,62.00,APPROVED
WI: MILWAUKEE,01/03/2018 12:21:00,,1992.00,1281.00,331.00,228.00,113.00,143.00,91.00,59.00,APPROVED
WI: MILWAUKEE,01/03/2018 13:21:00,,2014.00,1307.00,343.00,232.00,117.00,147.00,93.00,58.00,APPROVED
WI: MILWAUKEE,01/03/2018 14:22:00,,2030.00,1341.00,347.00,240.00,117.00,156.00,94.00,56.00,APPROVED
WI: MILWAUKEE,01/03/2018 15:22:00,,2036.00,1358.00,348.00,253.00,118.00,153.00,98.00,55.00,APPROVED
WI: MILWAUKEE,01/03/2018 16:22:00,,2057.00,1393.00,357.00,256.00,122.00,161.00,97.00,57.00,APPROVED
WI: MILWAUKEE,01/05/2018 16:09:00,,1625.00,845.00,225.00,116.00,72.00,86.00,61.00,58.00,APPROVED
WI: MILWAUKEE,01/05/2018 17:09:00,,1623.00,856.00,231.00,121.00,74.00,90.00,62.00,56.00,APPROVED
WI: MILWAUKEE,01/05/2018 18:09:00,,1600.00,861.00,229.00,125.00,75.00,90.00,66.00,48.00,APPROVED
WI: MILWAUKEE,01/05/2018 19:09:00,,1578.00,865.00,231.00,125.00,75.00,93.00,62.00,42.00,APPROVED
WI: MILWAUKEE,01/05/2018 20:09:00,,1574.00,848.00,227.00,123.00,75.00,93.00,63.00,40.00,APPROVED
WI: MILWAUKEE,01/05/2018 21:10:00,,1596.00,845.00,228.00,122.00,73.00,90.00,63.00,45.00,APPROVED
WI: MILWAUKEE,01/05/2018 22:10:00,,1605.00,848.00,232.00,123.00,74.00,89.00,62.00,49.00,APPROVED
WI: MILWAUKEE,01/05/2018 23:10:00,,1627.00,863.00,230.00,120.00,74.00,91.00,63.00,56.00,APPROVED
WI: MILWAUKEE,01/06/2018 00:10:00,,1638.00,867.00,231.00,121.00,74.00,90.00,63.00,60.00,APPROVED
WI: MILWAUKEE,01/06/2018 01:10:00,,1654.00,878.00,235.00,125.00,75.00,91.00,63.00,58.00,APPROVED
WI: MILWAUKEE,01/06/2018 02:11:00,,1656.00,886.00,235.00,124.00,74.00,94.00,67.00,57.00,APPROVED
WI: MILWAUKEE,01/06/2018 03:11:00,,1668.00,892.00,239.00,129.00,80.00,95.00,65.00,60.00,APPROVED
WI: MILWAUKEE,01/06/2018 04:11:00,,1677.00,892.00,235.00,127.00,75.00,94.00,64.00,61.00,APPROVED
WI: MILWAUKEE,01/06/2018 05:11:00,,1687.00,913.00,237.00,131.00,77.00,94.00,64.00,55.00,APPROVED
WI: MILWAUKEE,01/06/2018 06:11:00,,1709.00,915.00,242.00,134.00,78.00,96.00,65.00,58.00,APPROVED
WI: MILWAUKEE,01/06/2018 07:12:00,,1700.00,915.00,242.00,135.00,78.00,98.00,66.00,58.00,APPROVED
WI: MILWAUKEE,01/06/2018 08:12:00,,1674.00,890.00,237.00,129.00,78.00,95.00,65.00,53.00,APPROVED
WI: MILWAUKEE,01/06/2018 09:12:00,,1676.00,882.00,232.00,128.00,75.00,91.00,63.00,49.00,APPROVED
WI: MILWAUKEE,01/06/2018 10:12:00,,1670.00,888.00,236.00,126.00,74.00,93.00,63.00,44.00,APPROVED
WI: MILWAUKEE,01/06/2018 11:12:00,,1667.00,881.00,233.00,128.00,75.00,93.00,65.00,48.00,APPROVED
WI: MILWAUKEE,01/06/2018 12:13:00,,1675.00,891.00,232.00,125.00,77.00,93.00,65.00,44.00,APPROVED
WI: MILWAUKEE,01/06/2018 13:13:00,,1702.00,909.00,242.00,131.00,77.00,94.00,65.00,50.00,APPROVED
WI: MILWAUKEE,01/06/2018 14:13:00,,1715.00,923.00,243.00,135.00,79.00,100.00,64.00,46.00,APPROVED
WI: MILWAUKEE,01/06/2018 15:13:00,,1707.00,924.00,244.00,140.00,81.00,97.00,66.00,51.00,APPROVED
WI: MILWAUKEE,01/06/2018 16:13:00,,1712.00,936.00,246.00,132.00,80.00,98.00,69.00,60.00,APPROVED
WI: MILWAUKEE,01/06/2018 17:14:00,,1671.00,929.00,245.00,139.00,80.00,99.00,65.00,50.00,APPROVED
WI: MILWAUKEE,01/06/2018 18:14:00,,1614.00,894.00,242.00,131.00,78.00,97.00,67.00,41.00,APPROVED
WI: MILWAUKEE,01/06/2018 19:14:00,,1569.00,859.00,234.00,124.00,76.00,93.00,63.00,38.00,APPROVED
WI: MILWAUKEE,01/06/2018 20:14:00,,1528.00,842.00,231.00,123.00,76.00,92.00,65.00,36.00,APPROVED
WI: MILWAUKEE,01/06/2018 21:15:00,,1586.00,873.00,229.00,124.00,76.00,90.00,64.00,38.00,APPROVED
WI: MILWAUKEE,01/06/2018 22:15:00,,1622.00,877.00,235.00,129.00,78.00,93.00,65.00,41.00,APPROVED
WI: MILWAUKEE,01/06/2018 23:15:00,,1623.00,888.00,234.00,128.00,78.00,95.00,65.00,40.00,APPROVED
WI: MILWAUKEE,01/07/2018 00:15:00,,1631.00,892.00,237.00,127.00,77.00,94.00,65.00,40.00,APPROVED
WI: MILWAUKEE,01/07/2018 01:15:00,,1655.00,895.00,241.00,131.00,79.00,99.00,64.00,42.00,APPROVED
WI: MILWAUKEE,01/07/2018 02:16:00,,1643.00,896.00,242.00,131.00,78.00,96.00,66.00,43.00,APPROVED
WI: MILWAUKEE,01/07/2018 03:16:00,,1650.00,900.00,239.00,132.00,77.00,96.00,67.00,42.00,APPROVED
WI: MILWAUKEE,01/07/2018 04:16:00,,1674.00,918.00,246.00,135.00,79.00,98.00,66.00,44.00,APPROVED
WI: MILWAUKEE,01/07/2018 05:16:00,,1700.00,945.00,254.00,145.00,81.00,101.00,70.00,44.00,APPROVED
WI: MILWAUKEE,01/07/2018 06:16:00,,1706.00,961.00,251.00,145.00,85.00,104.00,70.00,47.00,APPROVED
WI: MILWAUKEE,01/07/2018 07:17:00,,1703.00,966.00,253.00,147.00,82.00,102.00,70.00,49.00,APPROVED
WI: MILWAUKEE,01/07/2018 08:17:00,,1692.00,955.00,251.00,146.00,83.00,100.00,68.00,50.00,APPROVED
WI: MILWAUKEE,01/07/2018 09:17:00,,1723.00,970.00,256.00,145.00,82.00,103.00,70.00,47.00,APPROVED
WI: MILWAUKEE,01/07/2018 10:17:00,,1753.00,1008.00,267.00,154.00,88.00,108.00,71.00,49.00,APPROVED
WI: MILWAUKEE,01/07/2018 11:17:00,,1771.00,1024.00,274.00,165.00,90.00,109.00,74.00,49.00,APPROVED
WI: MILWAUKEE,01/07/2018 12:18:00,,1773.00,1037.00,275.00,167.00,90.00,115.00,74.00,47.00,APPROVED
WI: MILWAUKEE,01/07/2018 13:18:00,,1762.00,1042.00,274.00,169.00,91.00,114.00,78.00,43.00,APPROVED
WI: MILWAUKEE,01/07/2018 14:18:00,,1770.00,1044.00,279.00,169.00,93.00,117.00,75.00,42.00,APPROVED
WI: MILWAUKEE,01/07/2018 15:18:00,,1769.00,1068.00,284.00,179.00,95.00,119.00,77.00,43.00,APPROVED
WI: MILWAUKEE,01/07/2018 16:19:00,,1775.00,1100.00,285.00,181.00,95.00,122.00,80.00,42.00,APPROVED
WI: MILWAUKEE,01/07/2018 17:19:00,,1781.00,1121.00,297.00,194.00,98.00,130.00,82.00,45.00,APPROVED
WI: MILWAUKEE,01/07/2018 18:19:00,,1758.00,1135.00,300.00,193.00,100.00,131.00,81.00,44.00,APPROVED
WI: MILWAUKEE,01/07/2018 19:19:00,,1751.00,1137.00,306.00,197.00,103.00,131.00,80.00,45.00,APPROVED
WI: MILWAUKEE,01/07/2018 20:19:00,,1726.00,1137.00,306.00,202.00,101.00,130.00,82.00,45.00,APPROVED
WI: MILWAUKEE,01/07/2018 21:20:00,,1736.00,1141.00,305.00,199.00,104.00,133.00,84.00,46.00,APPROVED
WI: MILWAUKEE,01/07/2018 22:20:00,,1745.00,1148.00,305.00,201.00,103.00,130.00,84.00,44.00,APPROVED
WI: MILWAUKEE,01/07/2018 23:20:00,,1755.00,1161.00,311.00,203.00,103.00,134.00,84.00,45.00,APPROVED
WI: MILWAUKEE,01/08/2018 00:20:00,,1743.00,1158.00,311.00,201.00,104.00,134.00,87.00,46.00,APPROVED
WI: MILWAUKEE,01/08/2018 01:20:00,,1744.00,1160.00,312.00,205.00,105.00,135.00,86.00,46.00,APPROVED
WI: MILWAUKEE,01/08/2018 02:21:00,,1792.00,1220.00,327.00,218.00,109.00,142.00,91.00,47.00,APPROVED
WI: MILWAUKEE,01/08/2018 03:21:00,,1801.00,1246.00,339.00,232.00,114.00,148.00,91.00,46.00,APPROVED
WI: MILWAUKEE,01/08/2018 04:21:00,,1777.00,1257.00,342.00,233.00,116.00,151.00,93.00,48.00,APPROVED
WI: MILWAUKEE,01/08/2018 05:21:00,,1787.00,1278.00,350.00,241.00,119.00,157.00,94.00,50.00,APPROVED
WI: MILWAUKEE,01/08/2018 06:21:00,,1810.00,1301.00,352.00,252.00,121.00,164.00,100.00,50.00,APPROVED
WI: MILWAUKEE,01/08/2018 07:22:00,,1804.00,1315.00,362.00,252.00,121.00,165.00,99.00,52.00,APPROVED
WI: MILWAUKEE,01/08/2018 08:22:00,,1798.00,1316.00,361.00,251.00,121.00,161.00,98.00,51.00,APPROVED
WI: MILWAUKEE,01/08/2018 09:22:00,,1838.00,1368.00,378.00,268.00,126.00,169.00,102.00,51.00,APPROVED
WI: MILWAUKEE,01/08/2018 10:22:00,,1883.00,1421.00,387.00,278.00,131.00,178.00,105.00,53.00,APPROVED
WI: MILWAUKEE,01/08/2018 11:22:00,,1910.00,1449.00,395.00,283.00,132.00,181.00,108.00,55.00,APPROVED
WI: MILWAUKEE,01/08/2018 12:23:00,,1942.00,1481.00,399.00,293.00,135.00,188.00,108.00,55.00,APPROVED
WI: MILWAUKEE,01/08/2018 13:23:00,,2016.00,1553.00,415.00,311.00,140.00,193.00,114.00,57.00,APPROVED
WI: MILWAUKEE,01/08/2018 14:23:00,,2077.00,1608.00,429.00,324.00,146.00,203.00,118.00,58.00,APPROVED
WI: MILWAUKEE,01/08/2018 15:23:00,,2080.00,1644.00,438.00,339.00,151.00,207.00,120.00,60.00,APPROVED
WI: MILWAUKEE,01/08/2018 16:23:00,,1996.00,1612.00,434.00,334.00,150.00,208.00,120.00,58.00,APPROVED
WI: MILWAUKEE,01/08/2018 17:24:00,,1871.00,1488.00,412.00,304.00,139.00,193.00,112.00,54.00,APPROVED
WI: MILWAUKEE,01/08/2018 18:24:00,,1758.00,1363.00,392.00,267.00,130.00,181.00,106.00,54.00,APPROVED
WI: MILWAUKEE,01/08/2018 19:24:00,,1600.00,1187.00,349.00,222.00,114.00,154.00,95.00,49.00,APPROVED
WI: MILWAUKEE,01/08/2018 20:24:00,,1501.00,1067.00,316.00,191.00,101.00,140.00,86.00,46.00,APPROVED
WI: MILWAUKEE,01/08/2018 21:25:00,,1499.00,1035.00,302.00,178.00,96.00,130.00,78.00,46.00,APPROVED
WI: MILWAUKEE,01/08/2018 22:25:00,,1517.00,1045.00,300.00,180.00,99.00,129.00,82.00,45.00,APPROVED
WI: MILWAUKEE,01/08/2018 23:25:00,,1576.00,1075.00,310.00,187.00,101.00,130.00,83.00,46.00,APPROVED
WI: MILWAUKEE,01/09/2018 00:25:00,,1592.00,1096.00,313.00,192.00,102.00,137.00,85.00,46.00,APPROVED
WI: MILWAUKEE,01/09/2018 01:25:00,,1604.00,1109.00,311.00,194.00,102.00,135.00,84.00,47.00,APPROVED
WI: MILWAUKEE,01/09/2018 02:26:00,,1627.00,1123.00,310.00,200.00,103.00,135.00,85.00,46.00,APPROVED
WI: MILWAUKEE,01/09/2018 03:26:00,,1638.00,1133.00,313.00,199.00,104.00,138.00,85.00,47.00,APPROVED
WI: MILWAUKEE,01/09/2018 04:26:00,,1662.00,1148.00,321.00,203.00,104.00,138.00,85.00,47.00,APPROVED
WI: MILWAUKEE,01/09/2018 05:26:00,,1707.00,1196.00,326.00,213.00,105.00,143.00,89.00,47.00,APPROVED
WI: MILWAUKEE,01/09/2018 06:26:00,,1736.00,1243.00,338.00,223.00,113.00,150.00,92.00,48.00,APPROVED
WI: MILWAUKEE,01/09/2018 07:27:00,,1737.00,1241.00,339.00,230.00,114.00,147.00,93.00,49.00,APPROVED
WI: MILWAUKEE,01/09/2018 08:27:00,,1730.00,1248.00,342.00,231.00,111.00,152.00,93.00,48.00,APPROVED
WI: MILWAUKEE,01/09/2018 09:27:00,,1717.00,1244.00,346.00,228.00,115.00,152.00,93.00,49.00,APPROVED
WI: MILWAUKEE,01/09/2018 10:27:00,,1712.00,1250.00,340.00,232.00,114.00,152.00,94.00,48.00,APPROVED
WI: MILWAUKEE,01/09/2018 11:27:00,,1701.00,1239.00,343.00,228.00,113.00,153.00,93.00,50.00,APPROVED
WI: MILWAUKEE,01/09/2018 12:28:00,,1719.00,1260.00,344.00,230.00,115.00,154.00,96.00,50.00,APPROVED
WI: MILWAUKEE,01/09/2018 13:28:00,,1700.00,1241.00,344.00,230.00,113.00,151.00,96.00,50.00,APPROVED
WI: MILWAUKEE,01/09/2018 14:27:00,,1671.00,1223.00,340.00,224.00,111.00,149.00,96.00,50.00,APPROVED
WI: MILWAUKEE,01/09/2018 15:32:00,,1472.00,896.00,249.00,138.00,82.00,101.00,67.00,39.00,APPROVED
WI: MILWAUKEE,01/09/2018 16:32:00,,1459.00,920.00,263.00,154.00,86.00,112.00,72.00,40.00,APPROVED
WI: MILWAUKEE,01/09/2018 17:32:00,,1457.00,947.00,269.00,158.00,89.00,116.00,74.00,40.00,APPROVED
WI: MILWAUKEE,01/09/2018 18:32:00,,1471.00,969.00,278.00,166.00,90.00,120.00,76.00,40.00,APPROVED
WI: MILWAUKEE,01/09/2018 19:33:00,,1547.00,1051.00,301.00,183.00,99.00,133.00,81.00,41.00,APPROVED
WI: MILWAUKEE,01/09/2018 20:33:00,,1637.00,1169.00,342.00,213.00,110.00,151.00,89.00,46.00,APPROVED
WI: MILWAUKEE,01/09/2018 21:33:00,,1772.00,1313.00,365.00,247.00,124.00,165.00,99.00,50.00,APPROVED
WI: MILWAUKEE,01/09/2018 22:33:00,,1889.00,1436.00,390.00,282.00,135.00,184.00,107.00,52.00,APPROVED
WI: MILWAUKEE,01/09/2018 23:33:00,,2004.00,1575.00,418.00,320.00,145.00,200.00,114.00,57.00,APPROVED
WI: MILWAUKEE,01/10/2018 00:34:00,,2115.00,1738.00,463.00,371.00,162.00,227.00,126.00,60.00,APPROVED
WI: MILWAUKEE,01/10/2018 01:34:00,,2111.00,1735.00,472.00,376.00,164.00,229.00,130.00,60.00,APPROVED
WI: MILWAUKEE,01/10/2018 02:34:00,,2064.00,1688.00,455.00,364.00,159.00,221.00,128.00,61.00,APPROVED
WI: MILWAUKEE,01/10/2018 03:34:00,,1978.00,1577.00,436.00,338.00,153.00,210.00,121.00,56.00,APPROVED
WI: MILWAUKEE,01/10/2018 04:34:00,,1915.00,1526.00,420.00,317.00,142.00,200.00,118.00,56.00,APPROVED
WI: MILWAUKEE,01/10/2018 05:35:00,,1876.00,1464.00,398.00,304.00,140.00,192.00,112.00,55.00,APPROVED
WI: MILWAUKEE,01/10/2018 06:35:00,,1880.00,1431.00,389.00,290.00,136.00,182.00,107.00,54.00,APPROVED
WI: MILWAUKEE,01/10/2018 07:35:00,,1885.00,1418.00,385.00,281.00,132.00,179.00,108.00,52.00,APPROVED
WI: MILWAUKEE,01/10/2018 08:35:00,,1843.00,1357.00,367.00,269.00,129.00,173.00,104.00,50.00,APPROVED
WI: MILWAUKEE,01/10/2018 09:35:00,,1785.00,1295.00,355.00,250.00,125.00,163.00,98.00,49.00,APPROVED
WI: MILWAUKEE,01/10/2018 10:36:00,,1823.00,1350.00,366.00,260.00,125.00,168.00,101.00,48.00,APPROVED
WI: MILWAUKEE,01/10/2018 11:36:00,,1863.00,1385.00,384.00,274.00,130.00,178.00,103.00,51.00,APPROVED
WI: MILWAUKEE,01/10/2018 12:36:00,,1817.00,1344.00,371.00,261.00,122.00,168.00,101.00,50.00,APPROVED
WI: MILWAUKEE,01/10/2018 13:36:00,,1745.00,1283.00,356.00,246.00,116.00,162.00,97.00,48.00,APPROVED
WI: MILWAUKEE,01/10/2018 14:36:00,,1724.00,1258.00,348.00,245.00,117.00,165.00,95.00,47.00,APPROVED
WI: MILWAUKEE,01/10/2018 15:37:00,,1690.00,1243.00,349.00,238.00,117.00,158.00,94.00,50.00,APPROVED
WI: MILWAUKEE,01/10/2018 16:37:00,,1635.00,1190.00,341.00,227.00,112.00,154.00,92.00,48.00,APPROVED
WI: MILWAUKEE,01/10/2018 17:37:00,,1565.00,1117.00,327.00,206.00,107.00,146.00,90.00,47.00,APPROVED
WI: MILWAUKEE,01/10/2018 18:37:00,,1555.00,1105.00,322.00,200.00,106.00,142.00,87.00,45.00,APPROVED
WI: MILWAUKEE,01/10/2018 19:38:00,,1557.00,1106.00,323.00,197.00,105.00,142.00,86.00,46.00,APPROVED
WI: MILWAUKEE,01/10/2018 20:38:00,,1546.00,1087.00,323.00,196.00,105.00,141.00,87.00,46.00,APPROVED
WI: MILWAUKEE,01/10/2018 21:38:00,,1535.00,1080.00,321.00,196.00,104.00,139.00,88.00,45.00,APPROVED
WI: MILWAUKEE,01/10/2018 22:38:00,,1531.00,1096.00,322.00,199.00,106.00,141.00,86.00,44.00,APPROVED
WI: MILWAUKEE,01/10/2018 23:38:00,,1523.00,1108.00,337.00,199.00,107.00,147.00,89.00,47.00,APPROVED
WI: MILWAUKEE,01/11/2018 00:39:00,,1506.00,1106.00,336.00,201.00,107.00,149.00,90.00,45.00,APPROVED
WI: MILWAUKEE,01/11/2018 01:39:00,,1467.00,1052.00,328.00,190.00,102.00,141.00,86.00,44.00,APPROVED
WI: MILWAUKEE,01/11/2018 02:39:00,,1414.00,992.00,304.00,174.00,99.00,132.00,82.00,44.00,APPROVED
WI: MILWAUKEE,01/11/2018 03:39:00,,1385.00,967.00,297.00,169.00,96.00,130.00,80.00,44.00,APPROVED
WI: MILWAUKEE,01/11/2018 04:39:00,,1358.00,940.00,290.00,163.00,94.00,126.00,79.00,43.00,APPROVED
WI: MILWAUKEE,01/11/2018 05:40:00,,1341.00,922.00,290.00,155.00,94.00,123.00,77.00,44.00,APPROVED
WI: MILWAUKEE,01/11/2018 06:40:00,,1333.00,920.00,287.00,157.00,91.00,120.00,76.00,43.00,APPROVED
WI: MILWAUKEE,01/11/2018 07:40:00,,1318.00,911.00,283.00,156.00,92.00,122.00,77.00,42.00,APPROVED
WI: MILWAUKEE,01/11/2018 08:40:00,,1312.00,894.00,282.00,154.00,90.00,119.00,76.00,42.00,APPROVED
WI: MILWAUKEE,01/11/2018 09:40:00,,1306.00,887.00,278.00,154.00,90.00,121.00,78.00,41.00,APPROVED
WI: MILWAUKEE,01/11/2018 10:41:00,,1296.00,893.00,277.00,152.00,92.00,120.00,78.00,42.00,APPROVED
WI: MILWAUKEE,01/11/2018 11:41:00,,1299.00,899.00,285.00,154.00,92.00,120.00,78.00,44.00,APPROVED
WI: MILWAUKEE,01/11/2018 12:41:00,,1309.00,909.00,284.00,160.00,92.00,124.00,78.00,43.00,APPROVED
WI: MILWAUKEE,01/11/2018 13:41:00,,1300.00,907.00,288.00,154.00,93.00,123.00,76.00,42.00,APPROVED
WI: MILWAUKEE,01/11/2018 14:41:00,,1268.00,877.00,285.00,151.00,90.00,120.00,77.00,44.00,APPROVED
WI: MILWAUKEE,01/11/2018 15:42:00,,1253.00,854.00,270.00,149.00,87.00,112.00,74.00,42.00,APPROVED
WI: MILWAUKEE,01/11/2018 16:42:00,,1246.00,832.00,267.00,145.00,87.00,111.00,74.00,41.00,APPROVED
WI: MILWAUKEE,01/11/2018 17:42:00,,1245.00,840.00,267.00,144.00,89.00,111.00,76.00,42.00,APPROVED
WI: MILWAUKEE,01/11/2018 18:42:00,,1262.00,847.00,272.00,147.00,86.00,115.00,74.00,41.00,APPROVED
WI: MILWAUKEE,01/11/2018 19:42:00,,1274.00,870.00,274.00,148.00,91.00,116.00,77.00,44.00,APPROVED
WI: MILWAUKEE,01/11/2018 20:43:00,,1323.00,907.00,287.00,155.00,90.00,122.00,77.00,43.00,APPROVED
WI: MILWAUKEE,01/11/2018 21:43:00,,1550.00,1113.00,349.00,193.00,108.00,148.00,89.00,47.00,APPROVED
WI: MILWAUKEE,01/11/2018 22:43:00,,1604.00,1149.00,354.00,202.00,111.00,151.00,90.00,45.00,APPROVED
WI: MILWAUKEE,01/11/2018 23:43:00,,1706.00,1218.00,363.00,212.00,112.00,153.00,91.00,47.00,APPROVED
WI: MILWAUKEE,01/12/2018 00:44:00,,1696.00,1187.00,343.00,212.00,109.00,146.00,88.00,46.00,APPROVED
WI: MILWAUKEE,01/12/2018 01:44:00,,1633.00,1121.00,310.00,195.00,104.00,134.00,83.00,45.00,APPROVED
WI: MILWAUKEE,01/12/2018 02:44:00,,1617.00,1053.00,291.00,182.00,100.00,123.00,81.00,45.00,APPROVED
WI: MILWAUKEE,01/12/2018 03:44:00,,1626.00,1020.00,277.00,166.00,94.00,115.00,77.00,41.00,APPROVED
WI: MILWAUKEE,01/12/2018 04:44:00,,1655.00,1007.00,272.00,163.00,90.00,114.00,74.00,43.00,APPROVED
WI: MILWAUKEE,01/12/2018 05:45:00,,1685.00,1032.00,272.00,167.00,91.00,113.00,75.00,41.00,APPROVED
WI: MILWAUKEE,01/12/2018 06:45:00,,1818.00,1149.00,304.00,190.00,100.00,130.00,84.00,46.00,APPROVED
WI: MILWAUKEE,01/12/2018 07:45:00,,1820.00,1155.00,305.00,192.00,99.00,127.00,82.00,45.00,APPROVED
WI: MILWAUKEE,01/12/2018 08:45:00,,1763.00,1101.00,295.00,182.00,97.00,126.00,78.00,43.00,APPROVED
WI: MILWAUKEE,01/12/2018 09:45:00,,1680.00,1026.00,275.00,166.00,91.00,114.00,74.00,41.00,APPROVED
WI: MILWAUKEE,01/12/2018 10:46:00,,1642.00,979.00,263.00,154.00,86.00,107.00,73.00,42.00,APPROVED
WI: MILWAUKEE,01/12/2018 11:46:00,,1631.00,953.00,256.00,150.00,87.00,104.00,72.00,42.00,APPROVED
WI: MILWAUKEE,01/12/2018 12:46:00,,1617.00,928.00,249.00,144.00,79.00,101.00,70.00,39.00,APPROVED
WI: MILWAUKEE,01/12/2018 13:46:00,,1599.00,913.00,247.00,138.00,78.00,97.00,68.00,40.00,APPROVED
WI: MILWAUKEE,01/12/2018 14:17:00,,1601.00,909.00,242.00,137.00,78.00,100.00,66.00,38.00,APPROVED
WI: MILWAUKEE,01/12/2018 15:22:00,,1567.00,841.00,225.00,122.00,73.00,90.00,65.00,37.00,APPROVED
WI: MILWAUKEE,01/12/2018 16:22:00,,1570.00,850.00,231.00,122.00,73.00,90.00,63.00,37.00,APPROVED
WI: MILWAUKEE,01/12/2018 17:23:00,,1561.00,835.00,225.00,119.00,71.00,92.00,62.00,34.00,APPROVED
WI: MILWAUKEE,01/12/2018 18:23:00,,1529.00,831.00,227.00,115.00,72.00,87.00,63.00,38.00,APPROVED
WI: MILWAUKEE,01/12/2018 19:23:00,,1524.00,822.00,225.00,117.00,72.00,87.00,60.00,36.00,APPROVED
WI: MILWAUKEE,01/12/2018 20:23:00,,1524.00,823.00,225.00,115.00,72.00,87.00,62.00,36.00,APPROVED
WI: MILWAUKEE,01/12/2018 21:24:00,,1540.00,829.00,224.00,117.00,75.00,86.00,62.00,36.00,APPROVED
WI: MILWAUKEE,01/12/2018 22:24:00,,1543.00,828.00,220.00,115.00,73.00,86.00,64.00,36.00,APPROVED